When you browse on this site, cookies collect data to enhance your experience and personalize the content and advertising you see.
Visit our Privacy Policy to learn more. By continuing to use the site, you agree to this use of cookies and data.
  • In United Kingdom
  • List of Countries
  • For 7 days
  • Water Temperature
  • Weather Map
  • Weather Widgets
  • user-avatar
    Login

    Hourly Weather Havza

    Today, 1 April, Wednesday

    Time Temperature Precipitation Wind Pressure Humidity
    00:00 +7°C° 0 mm 1 mps 699 mmHg 62%
    01:00 +7°C° 0 mm 1 mps 699 mmHg 62%
    02:00 +6°C° 0 mm 2 mps 699 mmHg 63%
    03:00 +6°C° 0 mm 2 mps 699 mmHg 64%
    04:00 +6°C° 0 mm 1 mps 700 mmHg 66%
    05:00 +6°C° 0 mm 1 mps 700 mmHg 67%
    06:00 +6°C° 0 mm 2 mps 700 mmHg 67%
    07:00 +7°C° 0 mm 2 mps 700 mmHg 66%
    08:00 +8°C° 0 mm 2 mps 701 mmHg 67%
    09:00 +8°C° 0.1 mm 2 mps 701 mmHg 69%
    10:00 +8°C° 0.1 mm 3 mps 701 mmHg 70%
    11:00 +9°C° 0.1 mm 3 mps 701 mmHg 72%
    12:00 +8°C° 0.1 mm 3 mps 701 mmHg 75%
    13:00 +8°C° 0.1 mm 3 mps 701 mmHg 79%
    14:00 +6°C° 0.1 mm 4 mps 701 mmHg 82%
    15:00 +7°C° 0.1 mm 3 mps 701 mmHg 83%
    16:00 +5°C° 0.1 mm 3 mps 701 mmHg 85%
    17:00 +5°C° 0.1 mm 3 mps 701 mmHg 86%
    18:00 +5°C° 0 mm 2 mps 701 mmHg 87%
    19:00 +5°C° 0 mm 2 mps 702 mmHg 89%
    20:00 +5°C° 0 mm 2 mps 702 mmHg 90%
    21:00 +6°C° 0 mm 1 mps 702 mmHg 91%
    22:00 +5°C° 0 mm 1 mps 702 mmHg 91%
    23:00 +5°C° 0 mm 1 mps 702 mmHg 91%

    Tomorrow, 2 April, Thursday

    Time Temperature Precipitation Wind Pressure Humidity
    00:00 +5°C° 0 mm 1 mps 702 mmHg 91%
    01:00 +5°C° 0 mm 1 mps 702 mmHg 91%
    02:00 +5°C° 0 mm 1 mps 702 mmHg 91%
    03:00 +5°C° 0 mm 1 mps 701 mmHg 92%
    04:00 +5°C° 0 mm 1 mps 701 mmHg 92%
    05:00 +5°C° 0 mm 1 mps 701 mmHg 92%
    06:00 +5°C° 0 mm 1 mps 702 mmHg 88%
    07:00 +6°C° 0 mm 1 mps 702 mmHg 84%
    08:00 +7°C° 0 mm 1 mps 702 mmHg 80%
    09:00 +8°C° 0 mm 1 mps 702 mmHg 75%
    10:00 +9°C° 0 mm 1 mps 701 mmHg 70%
    11:00 +11°C° 0 mm 1 mps 701 mmHg 65%
    12:00 +12°C° 0 mm 1 mps 701 mmHg 62%
    13:00 +12°C° 0 mm 1 mps 701 mmHg 58%
    14:00 +13°C° 0 mm 2 mps 700 mmHg 55%
    15:00 +13°C° 0 mm 2 mps 700 mmHg 60%
    16:00 +12°C° 0 mm 2 mps 699 mmHg 65%
    17:00 +10°C° 0 mm 3 mps 699 mmHg 70%
    18:00 +9°C° 0 mm 2 mps 699 mmHg 76%
    19:00 +8°C° 0 mm 2 mps 699 mmHg 83%
    20:00 +7°C° 0 mm 1 mps 698 mmHg 90%
    21:00 +7°C° 0 mm 1 mps 698 mmHg 89%
    22:00 +7°C° 0 mm 1 mps 698 mmHg 89%
    23:00 +7°C° 0 mm 1 mps 698 mmHg 89%

    Day after tomorrow, 3 April, Friday

    Time Temperature Precipitation Wind Pressure Humidity
    00:00 +7°C° 0.1 mm 1 mps 698 mmHg 88%
    01:00 +7°C° 0.1 mm 1 mps 698 mmHg 87%
    02:00 +8°C° 0.1 mm 1 mps 697 mmHg 86%
    03:00 +8°C° 0 mm 1 mps 697 mmHg 87%
    04:00 +8°C° 0 mm 1 mps 697 mmHg 88%
    05:00 +8°C° 0 mm 1 mps 697 mmHg 89%
    06:00 +9°C° 0 mm 1 mps 697 mmHg 85%
    07:00 +10°C° 0 mm 1 mps 698 mmHg 82%
    08:00 +11°C° 0 mm 1 mps 698 mmHg 79%
    09:00 +10°C° 0.2 mm 2 mps 699 mmHg 75%
    10:00 +12°C° 0.2 mm 2 mps 699 mmHg 71%
    11:00 +12°C° 0.2 mm 3 mps 699 mmHg 66%
    12:00 +12°C° 0.3 mm 3 mps 700 mmHg 66%
    13:00 +13°C° 0.3 mm 2 mps 700 mmHg 66%
    14:00 +13°C° 0.3 mm 2 mps 700 mmHg 66%
    15:00 +12°C° 0.6 mm 2 mps 700 mmHg 73%
    16:00 +9°C° 0.6 mm 2 mps 701 mmHg 80%
    17:00 +8°C° 0.6 mm 2 mps 701 mmHg 87%
    18:00 +8°C° 0.6 mm 2 mps 702 mmHg 89%
    19:00 +9°C° 0.6 mm 1 mps 702 mmHg 90%
    20:00 +8°C° 0.6 mm 1 mps 703 mmHg 92%
    21:00 +8°C° 0 mm 1 mps 703 mmHg 92%
    22:00 +8°C° 0 mm 1 mps 704 mmHg 92%
    23:00 +7°C° 0 mm 0 mps 704 mmHg 92%

    4 April, Saturday

    Time Temperature Precipitation Wind Pressure Humidity
    00:00 +7°C° 0 mm 0 mps 704 mmHg 93%
    01:00 +6°C° 0 mm 0 mps 704 mmHg 93%
    02:00 +6°C° 0 mm 0 mps 704 mmHg 94%
    03:00 +6°C° 0 mm 0 mps 705 mmHg 94%
    04:00 +6°C° 0 mm 0 mps 705 mmHg 94%
    05:00 +6°C° 0 mm 1 mps 705 mmHg 94%
    06:00 +7°C° 0 mm 1 mps 705 mmHg 90%
    07:00 +9°C° 0 mm 1 mps 705 mmHg 86%
    08:00 +10°C° 0 mm 1 mps 706 mmHg 81%
    09:00 +11°C° 0 mm 1 mps 706 mmHg 74%
    10:00 +13°C° 0 mm 2 mps 706 mmHg 67%
    11:00 +14°C° 0 mm 2 mps 705 mmHg 59%
    12:00 +15°C° 0 mm 2 mps 705 mmHg 57%
    13:00 +15°C° 0 mm 2 mps 705 mmHg 54%
    14:00 +16°C° 0 mm 2 mps 705 mmHg 51%
    15:00 +15°C° 0 mm 2 mps 705 mmHg 54%
    16:00 +15°C° 0 mm 1 mps 705 mmHg 57%
    17:00 +15°C° 0 mm 1 mps 705 mmHg 60%
    18:00 +13°C° 0 mm 1 mps 705 mmHg 66%
    19:00 +12°C° 0 mm 1 mps 705 mmHg 71%
    20:00 +11°C° 0 mm 1 mps 705 mmHg 77%
    21:00 +11°C° 0 mm 1 mps 705 mmHg 76%
    22:00 +11°C° 0 mm 1 mps 705 mmHg 74%
    23:00 +11°C° 0 mm 1 mps 705 mmHg 73%

    5 April, Sunday

    Time Temperature Precipitation Wind Pressure Humidity
    00:00 +11°C° 0 mm 1 mps 705 mmHg 72%
    01:00 +11°C° 0 mm 1 mps 705 mmHg 71%
    02:00 +10°C° 0 mm 0 mps 705 mmHg 70%
    03:00 +10°C° 0 mm 0 mps 705 mmHg 72%
    04:00 +10°C° 0 mm 0 mps 705 mmHg 74%
    05:00 +10°C° 0 mm 0 mps 705 mmHg 76%
    06:00 +11°C° 0.2 mm 1 mps 705 mmHg 79%
    07:00 +10°C° 0.2 mm 1 mps 705 mmHg 82%
    08:00 +10°C° 0.2 mm 1 mps 705 mmHg 85%
    09:00 +11°C° 0.2 mm 1 mps 705 mmHg 85%
    10:00 +11°C° 0.2 mm 1 mps 705 mmHg 84%
    11:00 +12°C° 0.2 mm 1 mps 705 mmHg 84%
    12:00 +12°C° 1 mm 2 mps 705 mmHg 87%
    13:00 +10°C° 1 mm 2 mps 705 mmHg 90%
    14:00 +10°C° 1 mm 2 mps 704 mmHg 93%
    15:00 +9°C° 1.5 mm 2 mps 704 mmHg 93%
    16:00 +9°C° 1.5 mm 2 mps 703 mmHg 94%
    17:00 +9°C° 1.5 mm 2 mps 703 mmHg 95%
    18:00 +8°C° 0.6 mm 3 mps 703 mmHg 94%
    19:00 +8°C° 0.6 mm 3 mps 703 mmHg 94%
    20:00 +8°C° 0.6 mm 3 mps 703 mmHg 93%
    21:00 +7°C° 0.1 mm 3 mps 703 mmHg 93%
    22:00 +7°C° 0.1 mm 3 mps 703 mmHg 93%
    23:00 +7°C° 0.1 mm 3 mps 703 mmHg 93%

    6 April, Monday

    Time Temperature Precipitation Wind Pressure Humidity
    00:00 +6°C° 0.1 mm 4 mps 703 mmHg 94%
    01:00 +6°C° 0.1 mm 4 mps 703 mmHg 94%
    02:00 +6°C° 0.1 mm 4 mps 703 mmHg 94%
    03:00 +5°C° 1.4 mm 4 mps 703 mmHg 94%
    04:00 +5°C° 1.4 mm 4 mps 703 mmHg 95%
    05:00 +4°C° 1.4 mm 4 mps 704 mmHg 95%
    06:00 +4°C° 1.6 mm 4 mps 704 mmHg 95%
    07:00 +3°C° 1.6 mm 4 mps 705 mmHg 95%
    08:00 +3°C° 1.6 mm 4 mps 706 mmHg 95%
    09:00 +1°C° 0.5 mm 4 mps 706 mmHg 94%
    10:00 +1°C° 0.5 mm 4 mps 707 mmHg 93%
    11:00 0°C° 0.5 mm 4 mps 708 mmHg 92%
    12:00 0°C° 0.2 mm 5 mps 708 mmHg 88%
    13:00 0°C° 0.2 mm 5 mps 709 mmHg 83%
    14:00 -1°C° 0.2 mm 6 mps 709 mmHg 79%
    15:00 -1°C° 0.1 mm 6 mps 710 mmHg 80%
    16:00 -2°C° 0.1 mm 6 mps 710 mmHg 80%
    17:00 -3°C° 0.1 mm 6 mps 711 mmHg 81%
    18:00 -3°C° 0.1 mm 6 mps 711 mmHg 82%
    19:00 -4°C° 0.1 mm 5 mps 712 mmHg 83%
    20:00 -5°C° 0.1 mm 5 mps 713 mmHg 84%
    21:00 -5°C° 0.1 mm 5 mps 713 mmHg 85%
    22:00 -4°C° 0.1 mm 4 mps 713 mmHg 85%
    23:00 -4°C° 0.1 mm 4 mps 713 mmHg 85%
    Show more